This demonstration page uses our WeatherBlox Daily Observations layout. Learn more.

Left ArrowRight Arrow

36.17497, -115.13722

Hourly Observations for March 6, 2021

Temp ( °F °C ) Dew Point ( °F °C ) Humidity (%) Winds ( mph kmh ) Pressure ( in mb ) Visibility ( mi km ) Precip ( " mm )
12:53 am 00:53 Clear 54 12.2 17 -8.3 23 23 NW 7 11 29.97 1015 10 16 0.00 0.00
1:53 am 01:53 Clear 53 11.7 19 -7.2 26 26 WSW 5 7 29.95 1014 10 16 0.00 0.00
2:53 am 02:53 Clear 52 11.1 19 -7.2 27 27 WSW 3 6 29.93 1013 10 16 0.00 0.00
3:53 am 03:53 Clear 50 10 19 -7.2 29 29 NNE 3 6 29.92 1013 10 16 0.00 0.00
4:53 am 04:53 Clear 48 8.9 20 -6.7 33 33 NW 6 9 29.93 1014 10 16 0.00 0.00
5:53 am 05:53 Clear 48 8.9 20 -6.7 33 33 WNW 9 15 29.94 1014 10 16 0.00 0.00
6:53 am 06:53 Sunny 51 10.6 19 -7.2 28 28 Calm 29.93 1013 10 16 0.00 0.00
7:53 am 07:53 Sunny 56 13.3 19 -7.2 24 24 N 8 13 29.94 1014 10 16 0.00 0.00
8:53 am 08:53 Sunny 61 16.1 19 -7.2 20 20 SE 5 7 29.94 1014 10 16 0.00 0.00
9:53 am 09:53 Sunny 68 20 20 -6.7 16 16 SE 13 20 29.92 1013 10 16 0.00 0.00
10:53 am 10:53 Sunny 75 23.9 18 -7.8 11 11 SSE 8 13 29.88 1012 10 16 0.00 0.00
11:53 am 11:53 Sunny 78 25.6 11 -11.7 8 8 S 14 22 29.85 1011 10 16 0.00 0.00
12:53 pm 12:53 Sunny 79 26.1 10 -12.2 7 7 S 20 31 29.82 1010 10 16 0.00 0.00
1:53 pm 13:53 Sunny 80 26.7 9 -12.8 6 6 S 17 28 29.81 1009 10 16 0.00 0.00
2:53 pm 14:53 Sunny 79 26.1 6 -14.4 6 6 S 15 24 29.79 1009 10 16 0.00 0.00
3:53 pm 15:53 Sunny 78 25.6 2 -16.7 5 5 SSW 20 31 29.79 1009 10 16 0.00 0.00
4:53 pm 16:53 Sunny 76 24.4 7 -13.9 7 7 SSW 15 24 29.80 1009 10 16 0.00 0.00
5:53 pm 17:53 Clear 73 22.8 9 -12.8 8 8 SSW 14 22 29.80 1009 10 16 0.00 0.00
6:53 pm 18:53 Clear 69 20.6 11 -11.7 10 10 S 10 17 29.82 1010 10 16 0.00 0.00
7:53 pm 19:53 Clear 68 20 13 -10.6 12 12 S 12 19 29.84 1010 10 16 0.00 0.00
8:53 pm 20:53 Clear 66 18.9 12 -11.1 12 12 WSW 8 13 29.87 1011 10 16 0.00 0.00
9:53 pm 21:53 Clear 62 16.7 11 -11.7 13 13 W 7 11 29.88 1012 10 16 0.00 0.00
10:53 pm 22:53 Clear 60 15.6 10 -12.2 14 14 NW 8 13 29.88 1012 10 16 0.00 0.00
11:53 pm 23:53 Clear 57 13.9 11 -11.7 16 16 W 8 13 29.89 1012 10 16 0.00 0.00

Powered by AerisWeather